Location: Lake Almanor
(40.2485°N, 121.1442°W)
Time: 16:16:02
(UTC-08:00)

STARLINK-1083 - Pass Details

Date: 01 February 2020
Orbit: 348 x 351 km, 53.0° (Epoch: 17 February)

Event Time Altitude Azimuth Distance (km) Brightness Sun altitude
Rises 18:41:56 0° 306° (NW) 2,163 7.4 -15.3°
Reaches altitude 10° 18:43:58 10° 302° (WNW) 1,317 6.3 -15.7°
Maximum altitude 18:46:51 55° 223° (SW) 428 3.3 -16.3°
Enters shadow 18:48:25 23° 152° (SSE) 802 4.3 -16.6°
